Regional Weather Roundup
Issued by NWS Kansas City/Pleasant Hill, MO

Home | Current Version | Previous Version | Text Only | Print | Product List | Glossary On
Versions: 1 2 3 4 5 6 7 8 9 10 11 12 13 14 15 16 17 18 19 20 21 22 23 24 25 26 27
000
ASUS43 KEAX 211110
RWREAX

WEATHER ROUNDUP FOR EASTERN KANSAS AND NORTHWEST MISSOURI
NATIONAL WEATHER SERVICE KANSAS CITY/PLEASANT HILL MO
500 AM CST TUE FEB 21 2017

KSZ040-057-103>105-MOZ028-029-037-043-211200-
...KANSAS CITY METROPOLITAN AREA...

CITY           SKY/WX    TMP DP  RH WIND       PRES   REMARKS
K.C. INTL      CLOUDY    49  45  86 N9        29.95S
K.C. DOWNTOWN  MOCLDY    53  46  77 N8        29.95R
LEES SUMMIT    CLOUDY    53  49  86 N12       29.95R
OLATHE - IXD   MOCLDY    50  46  86 N10       29.95R
OLATHE - OJC   MOCLDY    51  47  86 N12       29.94R
LAWRENCE       PTCLDY    43  42  97 NW6       29.96S

$$

MOZ001>008-011>017-020>025-030>033-038>040-044>046-053-054-211200-
...NORTHERN AND CENTRAL MISSOURI...

CITY           SKY/WX    TMP DP  RH WIND       PRES   REMARKS
ST. JOSEPH     CLOUDY    42  42 100 CALM      29.97S
WARRENSBURG    MOCLDY    50  50 100 W3        29.92R FOG
WHITEMAN AFB   PTCLDY    52  52 100 NW3       29.91F
CLINTON        MOCLDY    52  52 100 CALM      29.93R
SEDALIA        CLOUDY    55  53  93 N5        29.91F
WARSAW         NOT AVBL
CHILLICOTHE      N/A     51  46  83 N6        29.97R
KIRKSVILLE     MOCLDY    51  46  83 N13       29.97R

$$

MOZ041-047>049-056>058-063>065-088>090-097-211200-
...EASTERN AND SOUTHERN MISSOURI...

CITY           SKY/WX    TMP DP  RH WIND       PRES   REMARKS
ST. LOUIS INTL LGT RAIN  61  59  93 W3        29.93S FOG
SPIRIT OF STL  FOG       59  59 100 CALM      29.92R VSB 1/2
COLUMBIA       LGT RAIN  56  56 100 NW6       29.92R
JEFFERSON CITY LGT RAIN  56  56 100 NW3       29.92R VSB 1/2
ROLLA          FOG       54  54 100 CALM      29.91S VSB 1/4
OSAGE BEACH    LGT RAIN  55  54  94 N3        29.90S FOG
SPRINGFIELD    CLOUDY    54  53  97 N5        29.87F
BRANSON        CLOUDY    55  55 100 CALM      29.90R FOG
JOPLIN         FOG       48  48 100 S3        29.92R VSB 3/4
WEST PLAINS    CLOUDY    57  55  93 NE12      29.89S

$$

IAZ060-094-KSZ022-034>040-054-083-096-NEZ052-066-093-211200-
...KANSAS...SOUTHEAST NEBRASKA AND IOWA...

CITY           SKY/WX    TMP DP  RH WIND       PRES   REMARKS
TOPEKA         CLEAR     45  41  86 NW6       29.97S
MANHATTAN      PTCLDY    32  30  92 CALM      29.99R
EMPORIA        CLEAR     44  41  89 N7        29.97R
CHANUTE        CLEAR     48  45  89 NW9       29.93R
WICHITA        CLEAR     40  37  89 NW8       30.00R WCI  34
OMAHA          FOG       34  31  88 SE6       29.96S VSB 1   WCI  29
LINCOLN        CLEAR     28  26  92 N5        29.99R WCI  23
FALLS CITY     CLEAR     35  35 100 NW6       29.97S WCI  30
LAMONI         PTCLDY    43  41  93 N8        29.96S
DES MOINES     CLEAR     41  39  93 S5        29.96S

$$





USA.gov is the U.S. government's official web portal to all federal, state and local government web resources and services.